Regional Weather Roundup
Issued by NWS

Home | Current Version | Previous Version | Text Only | Print | Product List | Glossary On
Versions: 1 2 3 4 5 6 7 8 9 10 11 12 13 14 15 16 17 18 19 20 21 22 23 24 25 26 27 28 29 30 31 32 33 34 35 36 37 38 39 40 41 42 43 44 45 46 47 48 49 50
000
ASUS44 KFWD 282015
RWRTX
NORTH TEXAS HOURLY WEATHER ROUNDUP
NATIONAL WEATHER SERVICE FORT WORTH TX
200 PM CST FRI NOV 28 2014

NOTE: "FAIR" INDICATES FEW OR NO CLOUDS BELOW 12,000 FEET WITH NO
SIGNIFICANT WEATHER AND/OR OBSTRUCTIONS TO VISIBILITY.

TXZ118-119-282100-
DALLAS/FORT WORTH METROPLEX

CITY           SKY/WX    TMP DP  RH WIND       PRES   REMARKS
DFW AIRPORT    MOSUNNY   68  48  48 S21G32    30.06F
DALLAS LOVE    MOSUNNY   68  48  48 S14G24    30.07F
FTW MEACHAM    SUNNY     69  48  47 S18G26    30.06F
DAL-EXECUTIVE  SUNNY     69  49  48 S12G25    30.08F
FTW-ALLIANCE   MOSUNNY   68  47  46 S17G28    30.05F
FTW-SPINKS     SUNNY     70  48  46 S17G30    30.10F
ARLINGTON      SUNNY     69  48  47 S16G23    30.08F
GRAND PRAIRIE  SUNNY     66  52  59 S16G25    30.10F
MESQUITE       SUNNY     68  48  49 S18G31    30.10F
LANCASTER      SUNNY     69  48  47 S15G28    30.11F
$$

TXZ091>094-102>105-117-120-121-131>134-282100-
NORTH CENTRAL TEXAS

CITY           SKY/WX    TMP DP  RH WIND       PRES   REMARKS
SHRMAN/DENISON SUNNY     67  51  54 S22       30.06F
BOWIE          SUNNY     68  44  42 S15G23    30.02F
BRIDGEPORT     SUNNY     69  48  46 SW15G22   30.06F
DECATUR        SUNNY     67  45  44 S13G22    30.04F
DENTON         SUNNY     67  47  48 S22G30    30.06F
MCKINNEY       SUNNY     68  49  50 S23G29    30.06F
GREENVILLE     SUNNY     68  46  45 S24       30.09F
ROCKWALL       SUNNY     67  50  52 S21G31    30.08F
TERRELL        SUNNY     70  50  49 S20G29    30.11F
WAXAHACHIE     SUNNY     67  51  56 S22G29    30.11F
CLEBURNE       SUNNY     68  50  52 S17G23    30.09F
GRANBURY       SUNNY     70  49  46 S15G23    30.08F
$$

TXZ083>090-098>101-113>116-127>130-139>142-154-155-282100-
WESTERN NORTH TEXAS

CITY           SKY/WX    TMP DP  RH WIND       PRES   REMARKS
WICHITA FALLS  SUNNY     71  43  36 S23G29    29.96F
WF-KICKAPOO    SUNNY     70  40  33 SW14G22   29.99F
VERNON         SUNNY     72  37  28 S20       29.93F
ABILENE        SUNNY     70  44  39 S22G29    30.05F
ABILENE-DYESS  SUNNY     71  44  38 SW17      30.03F
BRECKENRIDGE   SUNNY     72  43  35 SW17G25   30.04F HAZE
GRAHAM         SUNNY     71  46  41 S12G20    30.01F
MINERAL WELLS  SUNNY     69  46  43 SW16      30.04F
STEPHENVILLE   SUNNY     69  48  46 S13G20    30.10F
COMANCHE       SUNNY     70  49  48 SW14G29   30.09F
BROWNWOOD      SUNNY     70  46  43 S16G22    30.09F
COLEMAN        SUNNY     69  48  47 S18G25    30.08F
BRADY          SUNNY     70  43  37 S18       30.10F
$$

TXZ143>147-156>162-174-175-282100-
CENTRAL TEXAS

CITY           SKY/WX    TMP DP  RH WIND       PRES   REMARKS
WACO           SUNNY     69  50  50 SW23      30.13F
WACO-MCGREGOR  SUNNY     70  52  52 S20G26    30.14F
HILLSBORO      SUNNY     67  50  54 S18G28    30.11F
CORSICANA      SUNNY     69  50  50 SW21G33   30.14F
MEXIA          MOSUNNY   68  52  56 S21G28    30.14F
HEARNE         MOSUNNY   71  52  52 S18       30.18F
CAMERON        MOSUNNY   72  52  49 SW15G23   30.15F
TEMPLE         SUNNY     70  48  46 S23       30.12F
KILLEEN        SUNNY     69  48  46 SW15G21   30.13F
KILLEEN-SKYLRK SUNNY     72  48  43 SW16G25   30.12F
FORT HOOD      SUNNY     73  48  41 S16G26    30.12F
GATESVILLE     SUNNY     70  48  46 SW15G24   30.13F
HAMILTON       SUNNY     70  48  44 SW21G28   30.12F
LAMPASAS       SUNNY     71  50  47 SW15G25   30.12F
$$

TXZ095>097-106>112-122>126-135>138-148>153-164>167-282100-
EAST TEXAS

CITY           SKY/WX    TMP DP  RH WIND       PRES   REMARKS
PARIS          SUNNY     66  46  48 S17G24    30.11F
SULPHUR SPRNGS SUNNY     67  46  45 SW18G24   30.13F
MOUNT PLEASANT SUNNY     67  45  44 S12G21    30.15F
MINEOLA        SUNNY     66  46  48 S15G21    30.14F
TYLER          SUNNY     67  49  52 SW17G23   30.15F
LONGVIEW       SUNNY     64  46  52 SW14      30.16F
MARSHALL       SUNNY     68  46  45 S7        30.19F
ATHENS         PTSUNNY   64  50  59 S9G17     30.13F
PALESTINE      MOSUNNY   68  52  56 S12       30.17F
JACKSONVILLE   SUNNY     66  49  55 S10G18    30.19F
HENDERSON      SUNNY     66  48  52 SW9G17    30.18F
NACOGDOCHES    SUNNY     66  46  48 S7        30.20F
LUFKIN         SUNNY     71  50  47 SW9       30.20F
$$

SUPPLEMENTAL OBSERVATIONS (CENTRAL)

CITY           SKY/WX    TMP DP  RH WIND       PRES   REMARKS
LAKE TEXOMA      N/A     66  46  48 S17         N/A
CADDO GRASSLND   N/A     66  45  45 S18G26      N/A
PAT MAYSE LAKE   N/A     63  45  51 SE21        N/A
GREENVILLE       N/A     66  45  45 S14G25      N/A
CEDAR HILL       N/A     70  50  49 S12G23      N/A
LAKE LIMESTONE   N/A     70  50  49 S17G25      N/A
MCGREGOR         N/A     72  50  46 S14G25      N/A
$$

SUPPLEMENTAL OBSERVATIONS (WEST)

CITY           SKY/WX    TMP DP  RH WIND       PRES   REMARKS
MILLERS CREEK    N/A     72  48  43 SW18G26     N/A
LBJ GRASSLAND    N/A     70  45  40 S14         N/A
GRANBURY         N/A     70  46  43 S20G25      N/A
COMANCHE         N/A     70  50  49 SW18G25     N/A
HAMBY            N/A     70  43  37 SW23G29     N/A
IVIE RESERVOIR   N/A     73  41  31 SW16G22     N/A
COLORADO BEND    N/A     70  46  43 SW13G24     N/A
$$

SUPPLEMENTAL OBSERVATIONS (EAST)

CITY           SKY/WX    TMP DP  RH WIND       PRES   REMARKS
TEXARKANA        N/A     64  39  39 S7          N/A
LINDEN           N/A     66  43  42 SW6         N/A
CADDO LAKE       N/A     66  41  39 S6          N/A
LUFKIN           N/A     72  50  46 MISG        N/A
N SABINE NF      N/A     66  43  42 MISG        N/A
$$

SUPPLEMENTAL OBSERVATIONS ARE A COLLECTION OF AUTOMATED INSTRUMENTS
THAT ARE MAINTAINED BY A VARIETY OF FEDERAL AND STATE AGENCIES.
CERTAIN ELEMENTS...SUCH AS HUMIDITY VALUES AND SUSTAINED WIND
SPEEDS...MAY BE APPROXIMATED.




USA.gov is the U.S. government's official web portal to all federal, state and local government web resources and services.